When you browse on this site, cookies collect data to enhance your experience and personalize the content and advertising you see.
Visit our Privacy Policy to learn more. By continuing to use the site, you agree to this use of cookies and data.
  • In Deutschland
  • Länderverzeichnis
  • Für 7 Tage
  • Wassertemperatur
  • Wetterkarte
  • Widgets
  • user-avatar
    Anmelden

    Stündliche Wetter Madinat 'Isa

    Heute, 19 November, Dienstag

    Zeit Temperatur Niederschläge Wind Luftdruck Luftfeuchtigkeit
    00:00 +26°C° 0.2 mm 5 m/S 761 mmHg 67%
    01:00 +26°C° 0 mm 4 m/S 760 mmHg 67%
    02:00 +26°C° 0 mm 4 m/S 760 mmHg 67%
    03:00 +27°C° 0 mm 1 m/S 759 mmHg 62%
    04:00 +26°C° 0.1 mm 2 m/S 760 mmHg 66%
    05:00 +26°C° 0.1 mm 3 m/S 760 mmHg 69%
    06:00 +26°C° 0.1 mm 4 m/S 761 mmHg 72%
    07:00 +25°C° 1.3 mm 5 m/S 761 mmHg 76%
    08:00 +24°C° 1.3 mm 6 m/S 761 mmHg 79%
    09:00 +24°C° 0 mm 6 m/S 761 mmHg 80%
    10:00 +23°C° 0.8 mm 6 m/S 761 mmHg 81%
    11:00 +23°C° 0.8 mm 6 m/S 761 mmHg 82%
    12:00 +23°C° 0.8 mm 7 m/S 761 mmHg 83%
    13:00 +23°C° 0.6 mm 7 m/S 760 mmHg 82%
    14:00 +23°C° 0.6 mm 8 m/S 760 mmHg 81%
    15:00 +24°C° 0.6 mm 8 m/S 760 mmHg 80%
    16:00 +23°C° 0.6 mm 8 m/S 760 mmHg 81%
    17:00 +23°C° 0.6 mm 8 m/S 761 mmHg 82%
    18:00 +23°C° 0.6 mm 8 m/S 761 mmHg 82%
    19:00 +23°C° 0.3 mm 8 m/S 761 mmHg 80%
    20:00 +23°C° 0.3 mm 8 m/S 761 mmHg 78%
    21:00 +23°C° 0.3 mm 7 m/S 761 mmHg 76%
    22:00 +23°C° 0.1 mm 7 m/S 761 mmHg 73%
    23:00 +23°C° 0.1 mm 7 m/S 761 mmHg 69%

    Morgen, 20 November, Mittwoch

    Zeit Temperatur Niederschläge Wind Luftdruck Luftfeuchtigkeit
    00:00 +23°C° 0.1 mm 7 m/S 760 mmHg 66%
    01:00 +23°C° 0 mm 7 m/S 760 mmHg 63%
    02:00 +23°C° 0 mm 8 m/S 760 mmHg 60%
    03:00 +23°C° 0 mm 8 m/S 760 mmHg 57%
    04:00 +23°C° 0 mm 8 m/S 760 mmHg 57%
    05:00 +23°C° 0 mm 8 m/S 761 mmHg 57%
    06:00 +23°C° 0 mm 8 m/S 761 mmHg 57%
    07:00 +22°C° 0 mm 8 m/S 761 mmHg 55%
    08:00 +22°C° 0 mm 8 m/S 761 mmHg 54%
    09:00 +22°C° 0 mm 9 m/S 762 mmHg 52%
    10:00 +22°C° 0 mm 9 m/S 761 mmHg 52%
    11:00 +22°C° 0 mm 9 m/S 761 mmHg 51%
    12:00 +22°C° 0 mm 9 m/S 761 mmHg 51%
    13:00 +22°C° 0 mm 8 m/S 761 mmHg 49%
    14:00 +22°C° 0 mm 8 m/S 760 mmHg 48%
    15:00 +23°C° 0 mm 8 m/S 760 mmHg 46%
    16:00 +22°C° 0 mm 8 m/S 760 mmHg 47%
    17:00 +22°C° 0 mm 8 m/S 761 mmHg 48%
    18:00 +22°C° 0 mm 8 m/S 761 mmHg 49%
    19:00 +22°C° 0 mm 8 m/S 761 mmHg 47%
    20:00 +22°C° 0 mm 8 m/S 761 mmHg 44%
    21:00 +22°C° 0 mm 8 m/S 762 mmHg 42%
    22:00 +22°C° 0 mm 8 m/S 761 mmHg 43%
    23:00 +22°C° 0 mm 8 m/S 761 mmHg 45%

    übermorgen, 21 November, Donnerstag

    Zeit Temperatur Niederschläge Wind Luftdruck Luftfeuchtigkeit
    00:00 +22°C° 0 mm 9 m/S 761 mmHg 46%
    01:00 +21°C° 0 mm 9 m/S 761 mmHg 46%
    02:00 +21°C° 0 mm 9 m/S 761 mmHg 46%
    03:00 +21°C° 0 mm 9 m/S 760 mmHg 46%
    04:00 +21°C° 0 mm 9 m/S 761 mmHg 47%
    05:00 +21°C° 0 mm 9 m/S 761 mmHg 49%
    06:00 +21°C° 0 mm 9 m/S 762 mmHg 50%
    07:00 +21°C° 0 mm 9 m/S 762 mmHg 50%
    08:00 +21°C° 0 mm 9 m/S 762 mmHg 51%
    09:00 +21°C° 0 mm 9 m/S 763 mmHg 51%
    10:00 +21°C° 0 mm 8 m/S 763 mmHg 50%
    11:00 +22°C° 0 mm 8 m/S 763 mmHg 49%
    12:00 +23°C° 0 mm 7 m/S 762 mmHg 48%
    13:00 +23°C° 0 mm 7 m/S 762 mmHg 47%
    14:00 +23°C° 0 mm 7 m/S 762 mmHg 47%
    15:00 +23°C° 0 mm 7 m/S 762 mmHg 46%
    16:00 +23°C° 0 mm 7 m/S 762 mmHg 47%
    17:00 +23°C° 0 mm 7 m/S 762 mmHg 49%
    18:00 +23°C° 0 mm 7 m/S 762 mmHg 50%
    19:00 +23°C° 0 mm 6 m/S 763 mmHg 50%
    20:00 +23°C° 0 mm 6 m/S 763 mmHg 50%
    21:00 +23°C° 0 mm 5 m/S 764 mmHg 50%
    22:00 +23°C° 0 mm 5 m/S 764 mmHg 50%
    23:00 +23°C° 0 mm 5 m/S 764 mmHg 49%

    22 November, Freitag

    Zeit Temperatur Niederschläge Wind Luftdruck Luftfeuchtigkeit
    00:00 +23°C° 0 mm 5 m/S 763 mmHg 49%
    01:00 +23°C° 0 mm 5 m/S 763 mmHg 49%
    02:00 +23°C° 0 mm 6 m/S 763 mmHg 50%
    03:00 +22°C° 0 mm 6 m/S 763 mmHg 50%
    04:00 +22°C° 0 mm 6 m/S 763 mmHg 50%
    05:00 +22°C° 0 mm 6 m/S 764 mmHg 50%
    06:00 +22°C° 0 mm 6 m/S 764 mmHg 49%
    07:00 +22°C° 0 mm 6 m/S 764 mmHg 49%
    08:00 +22°C° 0 mm 6 m/S 764 mmHg 48%
    09:00 +22°C° 0 mm 6 m/S 765 mmHg 47%
    10:00 +22°C° 0 mm 6 m/S 764 mmHg 47%
    11:00 +23°C° 0 mm 6 m/S 764 mmHg 47%
    12:00 +23°C° 0 mm 6 m/S 764 mmHg 47%
    13:00 +23°C° 0 mm 6 m/S 763 mmHg 47%
    14:00 +23°C° 0 mm 5 m/S 763 mmHg 47%
    15:00 +25°C° 0 mm 5 m/S 763 mmHg 47%
    16:00 +25°C° 0 mm 5 m/S 763 mmHg 49%
    17:00 +25°C° 0 mm 5 m/S 763 mmHg 51%
    18:00 +25°C° 0 mm 5 m/S 763 mmHg 53%
    19:00 +25°C° 0 mm 5 m/S 763 mmHg 52%
    20:00 +25°C° 0 mm 4 m/S 763 mmHg 50%
    21:00 +25°C° 0 mm 3 m/S 764 mmHg 48%
    22:00 +25°C° 0 mm 3 m/S 763 mmHg 49%
    23:00 +24°C° 0 mm 3 m/S 763 mmHg 49%

    23 November, Samstag

    Zeit Temperatur Niederschläge Wind Luftdruck Luftfeuchtigkeit
    00:00 +24°C° 0 mm 3 m/S 763 mmHg 50%
    01:00 +24°C° 0 mm 3 m/S 763 mmHg 49%
    02:00 +24°C° 0 mm 3 m/S 763 mmHg 49%
    03:00 +24°C° 0 mm 3 m/S 763 mmHg 49%
    04:00 +24°C° 0 mm 3 m/S 763 mmHg 50%
    05:00 +23°C° 0 mm 4 m/S 763 mmHg 50%
    06:00 +23°C° 0 mm 4 m/S 764 mmHg 51%
    07:00 +23°C° 0 mm 4 m/S 764 mmHg 50%
    08:00 +23°C° 0 mm 4 m/S 764 mmHg 50%
    09:00 +23°C° 0 mm 4 m/S 765 mmHg 50%
    10:00 +23°C° 0 mm 4 m/S 764 mmHg 49%
    11:00 +23°C° 0 mm 4 m/S 764 mmHg 49%
    12:00 +24°C° 0 mm 3 m/S 763 mmHg 48%
    13:00 +24°C° 0 mm 3 m/S 763 mmHg 47%
    14:00 +24°C° 0 mm 3 m/S 763 mmHg 45%
    15:00 +25°C° 0 mm 3 m/S 762 mmHg 44%
    16:00 +25°C° 0 mm 3 m/S 762 mmHg 43%
    17:00 +25°C° 0 mm 3 m/S 763 mmHg 42%
    18:00 +25°C° 0 mm 2 m/S 763 mmHg 41%
    19:00 +24°C° 0 mm 2 m/S 763 mmHg 40%
    20:00 +24°C° 0 mm 2 m/S 763 mmHg 40%
    21:00 +24°C° 0 mm 1 m/S 763 mmHg 39%
    22:00 +24°C° 0 mm 1 m/S 763 mmHg 40%
    23:00 +24°C° 0 mm 1 m/S 763 mmHg 40%

    24 November, Sonntag

    Zeit Temperatur Niederschläge Wind Luftdruck Luftfeuchtigkeit
    00:00 +24°C° 0 mm 2 m/S 762 mmHg 40%
    01:00 +24°C° 0 mm 2 m/S 762 mmHg 40%
    02:00 +24°C° 0 mm 2 m/S 762 mmHg 40%
    03:00 +24°C° 0 mm 2 m/S 762 mmHg 40%
    04:00 +24°C° 0 mm 1 m/S 762 mmHg 39%
    05:00 +24°C° 0 mm 1 m/S 763 mmHg 38%
    06:00 +24°C° 0 mm 1 m/S 763 mmHg 37%
    07:00 +24°C° 0 mm 1 m/S 763 mmHg 36%
    08:00 +24°C° 0 mm 1 m/S 763 mmHg 36%
    09:00 +24°C° 0 mm 1 m/S 764 mmHg 35%
    10:00 +25°C° 0 mm 1 m/S 763 mmHg 35%
    11:00 +25°C° 0 mm 1 m/S 763 mmHg 35%
    12:00 +25°C° 0 mm 1 m/S 762 mmHg 35%
    13:00 +25°C° 0 mm 2 m/S 762 mmHg 36%
    14:00 +25°C° 0 mm 2 m/S 762 mmHg 37%
    15:00 +25°C° 0 mm 2 m/S 761 mmHg 37%
    16:00 +25°C° 0 mm 2 m/S 761 mmHg 39%
    17:00 +25°C° 0 mm 3 m/S 762 mmHg 40%
    18:00 +25°C° 0 mm 3 m/S 762 mmHg 42%
    19:00 +25°C° 0 mm 2 m/S 762 mmHg 42%
    20:00 +25°C° 0 mm 2 m/S 762 mmHg 43%
    21:00 +25°C° 0 mm 2 m/S 762 mmHg 43%
    22:00 +25°C° 0 mm 2 m/S 762 mmHg 44%
    23:00 +25°C° 0 mm 2 m/S 761 mmHg 44%
    Mehr zeigen